EN

Hourly Weather Overyata

Today, 9 March, Tuesday

Time Temperature Precipitation Wind Pressure Humidity
00:00 -12°C° 0 mm 1 mps 739 mmHg 96%
01:00 -12°C° 0 mm 1 mps 739 mmHg 96%
02:00 -12°C° 0.1 mm 1 mps 740 mmHg 96%
03:00 -12°C° 0.1 mm 1 mps 740 mmHg 96%
04:00 -12°C° 0.1 mm 1 mps 740 mmHg 96%
05:00 -13°C° 0.1 mm 1 mps 741 mmHg 96%
06:00 -13°C° 0.1 mm 1 mps 741 mmHg 96%
07:00 -13°C° 0.1 mm 1 mps 741 mmHg 96%
08:00 -13°C° 0 mm 1 mps 742 mmHg 94%
09:00 -12°C° 0 mm 1 mps 743 mmHg 92%
10:00 -11°C° 0 mm 1 mps 743 mmHg 90%
11:00 -10°C° 0 mm 1 mps 744 mmHg 88%
12:00 -9°C° 0 mm 1 mps 744 mmHg 85%
13:00 -9°C° 0 mm 1 mps 745 mmHg 83%
14:00 -9°C° 0 mm 1 mps 745 mmHg 84%
15:00 -9°C° 0 mm 1 mps 746 mmHg 85%
16:00 -9°C° 0 mm 1 mps 746 mmHg 85%
17:00 -12°C° 0 mm 2 mps 747 mmHg 89%
18:00 -13°C° 0 mm 2 mps 747 mmHg 92%
19:00 -15°C° 0 mm 2 mps 747 mmHg 95%
20:00 -16°C° 0 mm 2 mps 748 mmHg 95%
21:00 -17°C° 0 mm 2 mps 748 mmHg 95%
22:00 -18°C° 0 mm 2 mps 748 mmHg 95%
23:00 -21°C° 0 mm 3 mps 748 mmHg 95%

Tomorrow, 10 March, Wednesday

Time Temperature Precipitation Wind Pressure Humidity
00:00 -22°C° 0 mm 3 mps 748 mmHg 95%
01:00 -23°C° 0 mm 3 mps 748 mmHg 95%
02:00 -25°C° 0 mm 3 mps 748 mmHg 94%
03:00 -26°C° 0 mm 3 mps 748 mmHg 94%
04:00 -27°C° 0 mm 3 mps 749 mmHg 94%
05:00 -29°C° 0 mm 3 mps 749 mmHg 93%
06:00 -29°C° 0 mm 3 mps 749 mmHg 93%
07:00 -30°C° 0 mm 3 mps 749 mmHg 92%
08:00 -31°C° 0 mm 4 mps 749 mmHg 90%
09:00 -30°C° 0 mm 4 mps 749 mmHg 88%
10:00 -29°C° 0 mm 4 mps 749 mmHg 86%
11:00 -27°C° 0 mm 5 mps 749 mmHg 84%
12:00 -26°C° 0 mm 5 mps 748 mmHg 82%
13:00 -24°C° 0 mm 5 mps 748 mmHg 81%
14:00 -24°C° 0 mm 5 mps 748 mmHg 80%
15:00 -22°C° 0 mm 5 mps 748 mmHg 80%
16:00 -22°C° 0 mm 5 mps 748 mmHg 80%
17:00 -24°C° 0 mm 5 mps 749 mmHg 83%
18:00 -24°C° 0 mm 4 mps 749 mmHg 86%
19:00 -25°C° 0 mm 4 mps 749 mmHg 89%
20:00 -26°C° 0 mm 4 mps 750 mmHg 90%
21:00 -26°C° 0 mm 4 mps 750 mmHg 91%
22:00 -26°C° 0 mm 3 mps 750 mmHg 92%
23:00 -27°C° 0 mm 3 mps 750 mmHg 93%

Day after tomorrow, 11 March, Thursday

Time Temperature Precipitation Wind Pressure Humidity
00:00 -27°C° 0 mm 2 mps 750 mmHg 94%
01:00 -28°C° 0 mm 2 mps 750 mmHg 96%
02:00 -29°C° 0 mm 2 mps 750 mmHg 96%
03:00 -27°C° 0 mm 1 mps 751 mmHg 97%
04:00 -28°C° 0 mm 1 mps 751 mmHg 98%
05:00 -27°C° 0 mm 1 mps 751 mmHg 98%
06:00 -27°C° 0 mm 1 mps 751 mmHg 98%
07:00 -27°C° 0 mm 1 mps 751 mmHg 98%
08:00 -27°C° 0 mm 2 mps 751 mmHg 97%
09:00 -25°C° 0 mm 2 mps 751 mmHg 96%
10:00 -23°C° 0 mm 2 mps 750 mmHg 94%
11:00 -20°C° 0 mm 2 mps 750 mmHg 93%
12:00 -19°C° 0 mm 3 mps 750 mmHg 91%
13:00 -17°C° 0 mm 3 mps 750 mmHg 90%
14:00 -16°C° 0.1 mm 3 mps 750 mmHg 90%
15:00 -15°C° 0.1 mm 3 mps 750 mmHg 91%
16:00 -13°C° 0.1 mm 3 mps 750 mmHg 91%
17:00 -13°C° 0.1 mm 3 mps 750 mmHg 92%
18:00 -12°C° 0.1 mm 2 mps 750 mmHg 93%
19:00 -12°C° 0.1 mm 2 mps 750 mmHg 94%
20:00 -13°C° 0 mm 3 mps 751 mmHg 92%
21:00 -13°C° 0 mm 3 mps 751 mmHg 90%
22:00 -14°C° 0 mm 4 mps 751 mmHg 87%
23:00 -14°C° 0 mm 3 mps 752 mmHg 89%

12 March, Friday

Time Temperature Precipitation Wind Pressure Humidity
00:00 -15°C° 0 mm 3 mps 752 mmHg 90%
01:00 -16°C° 0 mm 3 mps 752 mmHg 91%
02:00 -17°C° 0 mm 3 mps 752 mmHg 91%
03:00 -18°C° 0 mm 3 mps 753 mmHg 91%
04:00 -19°C° 0 mm 3 mps 753 mmHg 91%
05:00 -19°C° 0 mm 3 mps 753 mmHg 92%
06:00 -19°C° 0 mm 3 mps 754 mmHg 92%
07:00 -19°C° 0 mm 3 mps 754 mmHg 93%
08:00 -17°C° 0 mm 3 mps 755 mmHg 90%
09:00 -17°C° 0 mm 4 mps 755 mmHg 87%
10:00 -16°C° 0 mm 4 mps 755 mmHg 84%
11:00 -14°C° 0 mm 4 mps 755 mmHg 81%
12:00 -13°C° 0 mm 5 mps 755 mmHg 79%
13:00 -12°C° 0 mm 5 mps 755 mmHg 76%
14:00 -12°C° 0 mm 5 mps 755 mmHg 77%
15:00 -11°C° 0 mm 5 mps 755 mmHg 77%
16:00 -11°C° 0 mm 5 mps 755 mmHg 77%
17:00 -12°C° 0 mm 5 mps 755 mmHg 80%
18:00 -13°C° 0 mm 5 mps 755 mmHg 83%
19:00 -14°C° 0 mm 4 mps 756 mmHg 86%
20:00 -14°C° 0 mm 4 mps 756 mmHg 87%
21:00 -14°C° 0 mm 4 mps 757 mmHg 88%
22:00 -14°C° 0 mm 4 mps 757 mmHg 90%
23:00 -14°C° 0 mm 4 mps 757 mmHg 90%

13 March, Saturday

Time Temperature Precipitation Wind Pressure Humidity
00:00 -14°C° 0 mm 4 mps 757 mmHg 90%
01:00 -13°C° 0 mm 3 mps 758 mmHg 90%
02:00 -15°C° 0 mm 4 mps 758 mmHg 90%
03:00 -15°C° 0 mm 4 mps 759 mmHg 90%
04:00 -15°C° 0 mm 4 mps 759 mmHg 90%
05:00 -15°C° 0 mm 3 mps 760 mmHg 90%
06:00 -15°C° 0 mm 3 mps 760 mmHg 90%
07:00 -16°C° 0 mm 3 mps 760 mmHg 90%
08:00 -15°C° 0 mm 3 mps 761 mmHg 88%
09:00 -15°C° 0 mm 3 mps 761 mmHg 87%
10:00 -14°C° 0 mm 3 mps 761 mmHg 85%
11:00 -14°C° 0 mm 4 mps 761 mmHg 83%
12:00 -12°C° 0 mm 4 mps 762 mmHg 81%
13:00 -11°C° 0 mm 4 mps 762 mmHg 80%
14:00 -10°C° 0 mm 4 mps 762 mmHg 80%
15:00 -10°C° 0 mm 4 mps 762 mmHg 79%
16:00 -10°C° 0 mm 4 mps 762 mmHg 79%
17:00 -9°C° 0 mm 3 mps 761 mmHg 82%
18:00 -10°C° 0 mm 3 mps 761 mmHg 85%
19:00 -12°C° 0 mm 3 mps 761 mmHg 88%
20:00 -12°C° 0 mm 3 mps 761 mmHg 89%
21:00 -13°C° 0 mm 3 mps 761 mmHg 90%
22:00 -13°C° 0 mm 3 mps 761 mmHg 91%
23:00 -14°C° 0 mm 3 mps 761 mmHg 91%

14 March, Sunday

Time Temperature Precipitation Wind Pressure Humidity
00:00 -15°C° 0 mm 3 mps 760 mmHg 92%
01:00 -15°C° 0 mm 3 mps 760 mmHg 92%
02:00 -16°C° 0 mm 3 mps 760 mmHg 92%
03:00 -16°C° 0 mm 3 mps 760 mmHg 92%
04:00 -17°C° 0 mm 3 mps 760 mmHg 92%
05:00 -17°C° 0 mm 3 mps 759 mmHg 93%
06:00 -18°C° 0 mm 3 mps 759 mmHg 94%
07:00 -18°C° 0 mm 3 mps 759 mmHg 95%
08:00 -17°C° 0 mm 3 mps 759 mmHg 92%
09:00 -16°C° 0 mm 4 mps 759 mmHg 89%
10:00 -15°C° 0 mm 4 mps 758 mmHg 87%
11:00 -14°C° 0 mm 4 mps 758 mmHg 86%
12:00 -12°C° 0 mm 4 mps 758 mmHg 84%
13:00 -10°C° 0 mm 4 mps 757 mmHg 83%
14:00 -10°C° 0.1 mm 4 mps 757 mmHg 85%
15:00 -10°C° 0.1 mm 4 mps 757 mmHg 88%
16:00 -10°C° 0.1 mm 4 mps 757 mmHg 90%
17:00 -11°C° 0 mm 4 mps 757 mmHg 91%
18:00 -11°C° 0 mm 4 mps 756 mmHg 91%
19:00 -12°C° 0 mm 4 mps 756 mmHg 92%
20:00 -13°C° 0 mm 3 mps 756 mmHg 92%
21:00 -13°C° 0 mm 3 mps 756 mmHg 93%
22:00 -14°C° 0 mm 3 mps 756 mmHg 93%
23:00 -14°C° 0 mm 3 mps 756 mmHg 94%
Show more

We Need Your Consent

Meteoprog and our Service Providers may store and access personal data such as cookies, device identifiers or other similar technologies on your device and process such data to personalise content and ads, as well as provide social media features and to analyse the traffic.

  • Store and/or access information on your device

    Cookies, device identifiers or other information can be stored or accessed on your device for the purposes indicated above.

  • Personalised ads and content, ad and content measurement, audience insights, and products development

    Ads and content can be personalised based on a profile. More data can be added to better personalise ads and content. Ad and content performance can be measured. Insights about the audience who saw the ads and content can be derived. Such data can be used to develop or improve user’s experience, systems and software.

By clicking ‘I Agree’ you will allow the use of indicated cookies, device identifiers, web beacons or other similar technologies. Your settings can be changed in the browser on your device.

For certain purposes, legitimate interests may be relied on, rather than consent. You can read more about this in our Privacy and Cookie Policy.